Location: ??
(35.5653°N, 139.6194°E)
Time: 15:02:35
(UTC+00:00)

Delta 2 Rocket - Pass Details

Date: 26 February 2020
Orbit: 416 x 809 km, 35.6° (Epoch: 01 April)

Event Time Altitude Azimuth Distance (km) Brightness Sun altitude
Exits shadow 20:25:01 - 224° (SW) 2,013 5.8 -11.0°
Reaches altitude 10° 20:26:02 10° 217° (SW) 1,635 5.4 -10.8°
Maximum altitude 20:29:14 28° 158° (SSE) 876 4.6 -10.1°
Drops below altitude 10° 20:32:13 10° 97° (E) 1,523 7.3 -9.5°
Sets 20:34:27 0° 85° (E) 2,363 8.7 -9.1°
